DLH8KA EDDM-EDDV

Flight info

Callsign DLH8KA
Flight time 0h 51m
Altitude 30000
Route INPUD3Q/08L INPUD Y102 UPALA M726 LASTO M852 BIRKA/N0403F240 T803 GITEX GITEX1Z
Aircraft A320/M-SDE3FGHIRWY/LB1

Departure

Time 2026-05-01 10:56
Airport Munich Airport (EDDM)

Arrival

Time 2026-05-01 11:47
Airport Hannover Airport (EDDV)
Time Latitude Longitude Altitude Speed Heading
2026-05-01 10:19 48.35019 11.79376 1458 ft 0 kts 263°
2026-05-01 10:42 48.35020 11.79392 1467 ft 3 kts 264°
2026-05-01 10:42 48.35022 11.79423 1465 ft 3 kts 267°
2026-05-01 10:42 48.35022 11.79453 1461 ft 3 kts 271°
2026-05-01 10:43 48.35021 11.79483 1460 ft 3 kts 278°
2026-05-01 10:43 48.35017 11.79512 1460 ft 3 kts 299°
2026-05-01 10:43 48.35007 11.79531 1459 ft 2 kts 347°
2026-05-01 10:43 48.35004 11.79533 1459 ft 0 kts 353°
2026-05-01 10:48 48.35030 11.79528 1457 ft 7 kts 353°
2026-05-01 10:49 48.35084 11.79519 1459 ft 10 kts 353°
2026-05-01 10:49 48.35157 11.79506 1463 ft 10 kts 353°
2026-05-01 10:49 48.35246 11.79491 1462 ft 14 kts 353°
2026-05-01 10:49 48.35347 11.79474 1467 ft 14 kts 353°
2026-05-01 10:50 48.35433 11.79511 1460 ft 13 kts 27°
2026-05-01 10:50 48.35527 11.79510 1459 ft 13 kts 353°
2026-05-01 10:50 48.35624 11.79493 1467 ft 17 kts 353°
2026-05-01 10:50 48.35751 11.79471 1461 ft 19 kts 353°
2026-05-01 10:51 48.35876 11.79435 1462 ft 17 kts 319°
2026-05-01 10:51 48.35953 11.79344 1464 ft 14 kts 350°
2026-05-01 10:51 48.36056 11.79325 1464 ft 16 kts 350°
2026-05-01 10:51 48.36084 11.79203 1465 ft 13 kts 263°
2026-05-01 10:52 48.36073 11.79063 1468 ft 18 kts 263°
2026-05-01 10:52 48.36056 11.78844 1467 ft 23 kts 263°
2026-05-01 10:52 48.36037 11.78600 1467 ft 27 kts 263°
2026-05-01 10:52 48.36013 11.78288 1467 ft 31 kts 264°
2026-05-01 10:53 48.35987 11.77963 1460 ft 31 kts 263°
2026-05-01 10:53 48.35963 11.77650 1467 ft 29 kts 263°
2026-05-01 10:53 48.35942 11.77361 1465 ft 27 kts 263°
2026-05-01 10:53 48.35928 11.77107 1462 ft 21 kts 282°
2026-05-01 10:54 48.36026 11.76975 1466 ft 19 kts 350°
2026-05-01 10:54 48.36140 11.76953 1466 ft 15 kts 352°
2026-05-01 10:54 48.36204 11.76940 1463 ft 5 kts 353°
2026-05-01 10:54 48.36235 11.76937 1467 ft 5 kts 359°
2026-05-01 10:55 48.36289 11.76982 1465 ft 11 kts 56°
2026-05-01 10:55 48.36304 11.77114 1468 ft 18 kts 84°
2026-05-01 10:55 48.36344 11.77631 1466 ft 84 kts 83°
2026-05-01 10:55 48.36434 11.78803 1465 ft 139 kts 83°
2026-05-01 10:56 48.36567 11.80442 1638 ft 168 kts 84°
2026-05-01 10:56 48.36694 11.82224 2260 ft 176 kts 85°
2026-05-01 10:56 48.36815 11.84111 2972 ft 185 kts 84°
2026-05-01 10:56 48.37019 11.86016 3760 ft 185 kts 71°
2026-05-01 10:57 48.37850 11.87475 4502 ft 196 kts 32°
2026-05-01 10:57 48.39300 11.87851 4743 ft 235 kts 358°
2026-05-01 10:57 48.40954 11.87040 5135 ft 266 kts 333°
2026-05-01 10:57 48.42462 11.85304 5868 ft 281 kts 317°
2026-05-01 10:58 48.43784 11.83068 6769 ft 288 kts 314°
2026-05-01 10:58 48.45101 11.80786 7649 ft 290 kts 314°
2026-05-01 10:58 48.46428 11.78463 8548 ft 293 kts 314°
2026-05-01 10:58 48.47326 11.76885 9144 ft 295 kts 314°
2026-05-01 10:59 48.48664 11.74527 10033 ft 297 kts 314°
2026-05-01 10:59 48.50016 11.72141 10849 ft 300 kts 314°
2026-05-01 10:59 48.51380 11.69737 11655 ft 302 kts 314°
2026-05-01 10:59 48.52732 11.67350 12424 ft 305 kts 315°
2026-05-01 11:00 48.54132 11.64875 13250 ft 307 kts 314°
2026-05-01 11:00 48.55522 11.62419 14030 ft 309 kts 315°
2026-05-01 11:00 48.57093 11.60223 14726 ft 307 kts 328°
2026-05-01 11:00 48.58935 11.58613 15062 ft 318 kts 341°
2026-05-01 11:01 48.61066 11.57380 15198 ft 339 kts 343°
2026-05-01 11:01 48.63327 11.56099 15487 ft 353 kts 343°
2026-05-01 11:01 48.65674 11.54758 16064 ft 358 kts 343°
2026-05-01 11:01 48.68012 11.53413 16687 ft 361 kts 343°
2026-05-01 11:02 48.70369 11.52052 17320 ft 364 kts 343°
2026-05-01 11:02 48.72743 11.50676 17958 ft 367 kts 343°
2026-05-01 11:02 48.75134 11.49287 18598 ft 369 kts 343°
2026-05-01 11:02 48.77542 11.47885 19148 ft 372 kts 343°
2026-05-01 11:03 48.79969 11.46467 19704 ft 375 kts 343°
2026-05-01 11:03 48.82407 11.45043 20256 ft 377 kts 343°
2026-05-01 11:03 48.84864 11.43613 20803 ft 379 kts 343°
2026-05-01 11:03 48.87338 11.42174 21342 ft 382 kts 343°
2026-05-01 11:04 48.89828 11.40724 21884 ft 385 kts 343°
2026-05-01 11:04 48.92336 11.39265 22414 ft 387 kts 343°
2026-05-01 11:04 48.94828 11.37815 22918 ft 390 kts 343°
2026-05-01 11:04 48.97368 11.36332 23415 ft 392 kts 343°
2026-05-01 11:05 48.99928 11.34834 23910 ft 395 kts 343°
2026-05-01 11:05 49.02496 11.33325 24324 ft 397 kts 343°
2026-05-01 11:05 49.05082 11.31802 24714 ft 400 kts 343°
2026-05-01 11:05 49.07683 11.30268 25097 ft 402 kts 343°
2026-05-01 11:06 49.10298 11.28726 25474 ft 404 kts 344°
2026-05-01 11:06 49.12925 11.27176 25814 ft 406 kts 344°
2026-05-01 11:06 49.15570 11.25618 26169 ft 408 kts 344°
2026-05-01 11:07 49.20945 11.22754 26868 ft 407 kts 353°
2026-05-01 11:07 49.23736 11.22186 27210 ft 404 kts
2026-05-01 11:07 49.26541 11.22179 27545 ft 404 kts
2026-05-01 11:07 49.29360 11.22211 27886 ft 406 kts
2026-05-01 11:08 49.32192 11.22239 28218 ft 408 kts
2026-05-01 11:08 49.35038 11.22266 28541 ft 410 kts
2026-05-01 11:08 49.40808 11.22314 29161 ft 414 kts
2026-05-01 11:09 49.43689 11.22333 29455 ft 415 kts
2026-05-01 11:09 49.46591 11.22350 29748 ft 417 kts
2026-05-01 11:09 49.49465 11.22370 30013 ft 419 kts
2026-05-01 11:10 49.55316 11.22419 30395 ft 418 kts
2026-05-01 11:10 49.58195 11.22430 30409 ft 410 kts
2026-05-01 11:10 49.63861 11.22429 30401 ft 406 kts
2026-05-01 11:11 49.69509 11.22436 30410 ft 406 kts
2026-05-01 11:11 49.75161 11.22449 30406 ft 406 kts
2026-05-01 11:12 49.80810 11.22467 30403 ft 406 kts
2026-05-01 11:12 49.86457 11.22509 30394 ft 406 kts
2026-05-01 11:13 49.92097 11.22548 30388 ft 406 kts
2026-05-01 11:13 49.97749 11.22583 30384 ft 406 kts
2026-05-01 11:14 50.03395 11.22613 30385 ft 406 kts
2026-05-01 11:14 50.09052 11.22653 30387 ft 406 kts
2026-05-01 11:15 50.14703 11.22690 30388 ft 406 kts
2026-05-01 11:15 50.20349 11.22724 30390 ft 406 kts
2026-05-01 11:16 50.26000 11.22758 30391 ft 406 kts
2026-05-01 11:16 50.31648 11.22789 30389 ft 406 kts
2026-05-01 11:17 50.37296 11.22648 30390 ft 409 kts 359°
2026-05-01 11:17 50.42965 11.21776 30390 ft 409 kts 359°
2026-05-01 11:18 50.48628 11.20913 30393 ft 409 kts 359°
2026-05-01 11:18 50.54298 11.20056 30391 ft 409 kts 359°
2026-05-01 11:19 50.59969 11.19200 30386 ft 409 kts 359°
2026-05-01 11:19 50.65635 11.18338 30382 ft 409 kts 359°
2026-05-01 11:20 50.71316 11.17478 30388 ft 410 kts 359°
2026-05-01 11:20 50.76994 11.16605 30393 ft 410 kts 359°
2026-05-01 11:21 50.82694 11.15736 30394 ft 415 kts 356°
2026-05-01 11:21 50.88532 11.14849 30432 ft 426 kts 355°
2026-05-01 11:22 50.94445 11.13928 30445 ft 427 kts 355°
2026-05-01 11:22 51.00366 11.13012 30429 ft 428 kts 356°
2026-05-01 11:23 51.06292 11.12094 30432 ft 428 kts 355°
2026-05-01 11:23 51.12201 11.10940 30421 ft 429 kts 348°
2026-05-01 11:24 51.17788 11.07599 30416 ft 430 kts 337°
2026-05-01 11:25 51.25979 11.01753 29877 ft 428 kts 337°
2026-05-01 11:25 51.31376 10.97895 28610 ft 421 kts 337°
2026-05-01 11:25 51.34034 10.95986 28017 ft 418 kts 337°
2026-05-01 11:26 51.36678 10.94080 27451 ft 415 kts 337°
2026-05-01 11:26 51.41938 10.90431 26354 ft 409 kts 339°
2026-05-01 11:26 51.44572 10.88731 25816 ft 406 kts 340°
2026-05-01 11:27 51.47193 10.87075 25301 ft 403 kts 340°
2026-05-01 11:27 51.49797 10.85428 24790 ft 401 kts 340°
2026-05-01 11:27 51.52382 10.83779 24310 ft 399 kts 340°
2026-05-01 11:27 51.54945 10.82078 23807 ft 397 kts 335°
2026-05-01 11:28 51.57224 10.79589 23292 ft 398 kts 318°
2026-05-01 11:28 51.59129 10.76371 22744 ft 397 kts 314°
2026-05-01 11:28 51.60993 10.73110 22213 ft 395 kts 314°
2026-05-01 11:29 51.64674 10.66613 21208 ft 391 kts 314°
2026-05-01 11:29 51.66500 10.63385 20743 ft 389 kts 314°
2026-05-01 11:29 51.70120 10.56978 19800 ft 384 kts 314°
2026-05-01 11:30 51.71915 10.53797 19345 ft 383 kts 314°
2026-05-01 11:30 51.73705 10.50623 18903 ft 381 kts 314°
2026-05-01 11:30 51.75485 10.47464 18420 ft 380 kts 314°
2026-05-01 11:30 51.77259 10.44311 17936 ft 378 kts 313°
2026-05-01 11:31 51.79019 10.41175 17472 ft 376 kts 313°
2026-05-01 11:31 51.80769 10.38056 17001 ft 374 kts 313°
2026-05-01 11:31 51.82510 10.34948 16563 ft 372 kts 313°
2026-05-01 11:31 51.84240 10.31853 16134 ft 370 kts 313°
2026-05-01 11:32 51.85961 10.28772 15708 ft 368 kts 313°
2026-05-01 11:32 51.87673 10.25710 15291 ft 366 kts 313°
2026-05-01 11:32 51.89377 10.22658 14874 ft 364 kts 313°
2026-05-01 11:32 51.91066 10.19626 14471 ft 362 kts 313°
2026-05-01 11:33 51.92747 10.16604 14033 ft 361 kts 313°
2026-05-01 11:33 51.94424 10.13585 13587 ft 359 kts 313°
2026-05-01 11:33 51.96088 10.10583 13140 ft 357 kts 312°
2026-05-01 11:33 51.97746 10.07586 12726 ft 356 kts 313°
2026-05-01 11:34 51.99391 10.04610 12282 ft 353 kts 312°
2026-05-01 11:34 52.01028 10.01651 11825 ft 352 kts 312°
2026-05-01 11:34 52.02679 9.98667 11407 ft 350 kts 312°
2026-05-01 11:34 52.04299 9.95737 11010 ft 348 kts 312°
2026-05-01 11:35 52.05887 9.92858 10603 ft 346 kts 312°
2026-05-01 11:35 52.07482 9.89954 10393 ft 342 kts 312°
2026-05-01 11:35 52.09046 9.87116 10375 ft 325 kts 312°
2026-05-01 11:35 52.10515 9.84468 10249 ft 314 kts 312°
2026-05-01 11:36 52.11982 9.81827 9978 ft 309 kts 312°
2026-05-01 11:36 52.12934 9.80116 9760 ft 307 kts 312°
2026-05-01 11:36 52.14820 9.76714 9281 ft 304 kts 312°
2026-05-01 11:36 52.15778 9.74991 9036 ft 303 kts 312°
2026-05-01 11:37 52.17189 9.72456 8686 ft 302 kts 312°
2026-05-01 11:37 52.19050 9.69120 8271 ft 299 kts 312°
2026-05-01 11:37 52.19994 9.67430 8073 ft 298 kts 312°
2026-05-01 11:37 52.21385 9.64941 7768 ft 296 kts 312°
2026-05-01 11:38 52.22770 9.62463 7453 ft 294 kts 312°
2026-05-01 11:38 52.24146 9.60004 7066 ft 292 kts 312°
2026-05-01 11:38 52.25513 9.57567 6693 ft 290 kts 312°
2026-05-01 11:38 52.26885 9.55144 6311 ft 289 kts 312°
2026-05-01 11:39 52.28243 9.52736 5931 ft 288 kts 312°
2026-05-01 11:39 52.29593 9.50342 5566 ft 286 kts 312°
2026-05-01 11:39 52.30942 9.47960 5218 ft 285 kts 312°
2026-05-01 11:39 52.32288 9.45600 4870 ft 283 kts 312°
2026-05-01 11:40 52.33627 9.43250 4537 ft 281 kts 312°
2026-05-01 11:40 52.34939 9.40947 4353 ft 273 kts 312°
2026-05-01 11:40 52.36189 9.38756 4206 ft 254 kts 312°
2026-05-01 11:40 52.37357 9.36714 4054 ft 240 kts 313°
2026-05-01 11:41 52.38483 9.34735 3754 ft 235 kts 311°
2026-05-01 11:41 52.39599 9.32784 3429 ft 233 kts 312°
2026-05-01 11:41 52.40842 9.31124 3046 ft 233 kts 339°
2026-05-01 11:41 52.42400 9.30702 2951 ft 226 kts
2026-05-01 11:42 52.43935 9.31325 2973 ft 226 kts 30°
2026-05-01 11:42 52.45188 9.32803 2977 ft 221 kts 51°
2026-05-01 11:42 52.46002 9.34891 2983 ft 215 kts 72°
2026-05-01 11:42 52.46287 9.37175 2984 ft 196 kts 93°
2026-05-01 11:43 52.46237 9.39281 3002 ft 177 kts 95°
2026-05-01 11:43 52.46190 9.41261 2982 ft 172 kts 94°
2026-05-01 11:43 52.46141 9.43211 2967 ft 170 kts 95°
2026-05-01 11:44 52.46044 9.47074 2651 ft 170 kts 96°
2026-05-01 11:44 52.45994 9.48999 2436 ft 169 kts 95°
2026-05-01 11:44 52.45945 9.50897 2197 ft 163 kts 94°
2026-05-01 11:44 52.45898 9.52706 1978 ft 155 kts 95°
2026-05-01 11:45 52.45854 9.54418 1773 ft 147 kts 94°
2026-05-01 11:45 52.45811 9.56038 1620 ft 137 kts 96°
2026-05-01 11:45 52.45770 9.57593 1434 ft 136 kts 96°
2026-05-01 11:45 52.45730 9.59113 1254 ft 132 kts 96°
2026-05-01 11:46 52.45691 9.60631 1080 ft 132 kts 95°
2026-05-01 11:46 52.45661 9.62143 886 ft 134 kts 96°
2026-05-01 11:46 52.45607 9.63654 709 ft 130 kts 94°
2026-05-01 11:46 52.45576 9.65130 538 ft 130 kts 94°
2026-05-01 11:47 52.45527 9.66641 329 ft 132 kts 95°
2026-05-01 11:47 52.45487 9.68142 191 ft 130 kts 95°
2026-05-01 11:47 52.45450 9.69370 187 ft 69 kts 92°
2026-05-01 11:47 52.45434 9.69952 184 ft 48 kts 92°
2026-05-01 11:48 52.45421 9.70430 186 ft 35 kts 92°
2026-05-01 11:48 52.45449 9.70660 197 ft 16 kts 23°
2026-05-01 11:48 52.45542 9.70671 187 ft 10 kts 352°
2026-05-01 11:48 52.45582 9.70586 188 ft 11 kts 275°
2026-05-01 11:49 52.45585 9.70458 197 ft 14 kts 273°
2026-05-01 11:49 52.45590 9.70285 186 ft 13 kts 274°
2026-05-01 11:49 52.45594 9.70137 186 ft 15 kts 272°
2026-05-01 11:49 52.45601 9.69918 193 ft 13 kts 273°
2026-05-01 11:50 52.45644 9.69827 191 ft 10 kts 336°
2026-05-01 11:50 52.45675 9.69734 192 ft 10 kts 275°
2026-05-01 11:50 52.45678 9.69601 184 ft 14 kts 271°
2026-05-01 11:50 52.45721 9.69482 183 ft 12 kts 329°
2026-05-01 11:51 52.45759 9.69365 181 ft 13 kts 270°
2026-05-01 11:51 52.45776 9.69248 179 ft 9 kts 316°
2026-05-01 11:51 52.45809 9.69262 179 ft 4 kts 38°
2026-05-01 11:51 52.45827 9.69291 179 ft 3 kts 46°
2026-05-01 11:52 52.45840 9.69313 179 ft 1 kts 46°
2026-05-01 11:52 52.45846 9.69325 179 ft 0 kts 47°